Weather History for Ann Arbor, MI

Change the Weather History Date:

Sunday, March 31, 2013

  Actual Average Record
Temperature  
Mean Temperature 44 °F -  
Max Temperature 60 °F 48 °F 73 °F (1999)
Min Temperature 30 °F 29 °F 23 °F (2011)
Degree Days  
Heating Degree Days 20    
Moisture  
Dew Point 34 °F    
Average Humidity 69    
Maximum Humidity 89    
Minimum Humidity 32    
Precipitation  
Precipitation 0.05 in - - ()
Sea Level Pressure  
Sea Level Pressure 29.72 in    
Wind  
Wind Speed 6 mph (West)    
Max Wind Speed 20 mph    
Max Gust Speed 28 mph    
Visibility 7 miles    
Events Rain    
Averages and records for this station are not official NWS values.
T = Trace of Precipitation, MM = Missing Value Source: NWS Daily Summary

Daily Weather History Graph

Daily Weather History Graph

Search for Another Location

Airport:

Trip Planner

Search our weather history database for the weather conditions in past years. The results will help you decide how hot, cold, wet, or windy it might be!

Date:

Astronomy

Mar. 31, 2013 Rise Set
Actual Time 7:18 AM EDT 7:59 PM EDT
Civil Twilight 6:50 AM EDT 8:28 PM EDT
Nautical Twilight 6:17 AM EDT 9:01 PM EDT
Astronomical Twilight 5:42 AM EDT 9:36 PM EDT
Moon 12:08 AM EDT (3/31) 10:00 AM EDT (3/31)
Length of Visible Light 13h 37m
Length of Day
12h 41m
Waning Gibbous, 78% of the Moon is Illuminated
Mar 31
Waning Gibbous
Apr 3
Last Quarter
Apr 10
New
Apr 18
First Quarter
Apr 25
Full

Hourly Weather History & Observations

Time (EDT) Temp. Windchill Dew Point Humidity Pressure Visibility Wind Dir Wind Speed Gust Speed Precip Events Conditions
12:53 AM 34.0 °F - 27.0 °F 75% 29.92 in 9.0 mi Calm Calm - N/A   Clear
1:53 AM 30.9 °F - 27.0 °F 85% 29.90 in 8.0 mi Calm Calm - N/A   Clear
2:53 AM 30.9 °F - 27.0 °F 85% 29.86 in 7.0 mi Calm Calm - N/A   Clear
3:53 AM 32.0 °F - 28.0 °F 85% 29.83 in 7.0 mi Calm Calm - N/A   Mostly Cloudy
4:53 AM 32.0 °F - 28.9 °F 88% 29.81 in 8.0 mi Calm Calm - N/A   Mostly Cloudy
5:53 AM 36.0 °F - 30.0 °F 79% 29.77 in 8.0 mi Calm Calm - N/A   Overcast
6:53 AM 37.9 °F 35.5 °F 30.9 °F 76% 29.76 in 9.0 mi SW 3.5 mph - N/A   Overcast
7:53 AM 39.9 °F 35.8 °F 30.9 °F 70% 29.76 in 8.0 mi SSW 5.8 mph - N/A   Overcast
8:53 AM 39.9 °F - 33.1 °F 77% 29.75 in 5.0 mi Calm Calm - 0.00 in Rain Light Rain
9:41 AM 39.2 °F 37.0 °F 35.6 °F 87% 29.73 in 2.5 mi SW 3.5 mph - 0.02 in Rain Light Rain
9:53 AM 39.9 °F 37.8 °F 37.0 °F 89% 29.73 in 2.0 mi SW 3.5 mph - 0.04 in Rain Light Rain
10:16 AM 41.0 °F 38.0 °F 37.4 °F 87% 29.71 in 3.0 mi SW 4.6 mph - 0.01 in Rain Light Rain
10:34 AM 42.8 °F 38.6 °F 39.2 °F 87% 29.71 in 3.0 mi SW 6.9 mph - 0.01 in   Overcast
10:53 AM 44.1 °F 40.8 °F 39.9 °F 85% 29.72 in 3.0 mi WSW 5.8 mph - 0.01 in   Overcast
11:03 AM 44.6 °F 40.2 °F 41.0 °F 87% 29.70 in 3.0 mi WSW 8.1 mph - N/A   Overcast
11:28 AM 44.6 °F 40.7 °F 41.0 °F 87% 29.71 in 3.0 mi SW 6.9 mph - N/A   Overcast
11:53 AM 46.0 °F 41.9 °F 42.1 °F 86% 29.72 in 4.0 mi WSW 8.1 mph - N/A   Overcast
12:25 PM 48.2 °F - 42.8 °F 82% 29.70 in 6.0 mi West 12.7 mph - N/A   Haze
12:39 PM 48.2 °F - 42.8 °F 82% 29.70 in 7.0 mi West 13.8 mph - N/A   Overcast
12:53 PM 51.1 °F - 43.0 °F 74% 29.70 in 8.0 mi North - - N/A   Mostly Cloudy
1:00 PM 51.8 °F - 42.8 °F 71% 29.69 in 9.0 mi West 17.3 mph 24.2 mph N/A   Overcast
1:35 PM 53.6 °F - 39.2 °F 58% 29.68 in 10.0 mi West 12.7 mph - N/A   Mostly Cloudy
1:53 PM 55.0 °F - 37.9 °F 53% 29.68 in 10.0 mi WSW 16.1 mph 25.3 mph N/A   Mostly Cloudy
2:53 PM 57.9 °F - 34.0 °F 41% 29.67 in 10.0 mi West 17.3 mph 21.9 mph N/A   Partly Cloudy
3:53 PM 59.0 °F - 30.9 °F 35% 29.65 in 10.0 mi West 15.0 mph 24.2 mph N/A   Partly Cloudy
4:53 PM 57.9 °F - 30.0 °F 35% 29.64 in 10.0 mi WNW 16.1 mph 24.2 mph N/A   Partly Cloudy
5:53 PM 57.9 °F - 28.0 °F 32% 29.63 in 10.0 mi West 19.6 mph 26.5 mph N/A   Partly Cloudy
6:53 PM 55.9 °F - 28.9 °F 36% 29.64 in 10.0 mi West 18.4 mph - N/A   Overcast
7:53 PM 52.0 °F - 30.0 °F 43% 29.65 in 10.0 mi West 17.3 mph 20.7 mph N/A   Mostly Cloudy
8:53 PM 48.9 °F - 30.0 °F 48% 29.65 in 10.0 mi West 9.2 mph - N/A   Partly Cloudy
9:53 PM 48.0 °F - 35.1 °F 61% 29.67 in 10.0 mi WNW 6.9 mph - N/A   Overcast
10:49 PM 46.4 °F 41.1 °F 33.8 °F 62% 29.68 in 10.0 mi NW 11.5 mph 24.2 mph N/A   Overcast
10:53 PM 46.0 °F 39.9 °F 33.1 °F 61% 29.69 in 10.0 mi NNW 13.8 mph - N/A   Overcast
11:53 PM 43.0 °F 34.8 °F 30.9 °F 62% 29.71 in 10.0 mi WNW 18.4 mph 27.6 mph N/A   Mostly Cloudy